Weather History for KDSM - November, 2012

Change the Weather History Date:

Thursday, November 29, 2012

  Actual Average Record
Temperature  
Mean Temperature 43 °F 32 °F  
Max Temperature 54 °F 40 °F 70 °F (1998)
Min Temperature 31 °F 24 °F -10 °F (1891)
Degree Days  
Heating Degree Days 22 33  
Month to date heating degree days 618 741  
Since 1 July heating degree days 1072 1225  
Cooling Degree Days 0 0  
Month to date cooling degree days 3 0  
Year to date cooling degree days 1613 1066  
Moisture  
Dew Point 31 °F    
Average Humidity 66    
Maximum Humidity 82    
Minimum Humidity 50    
Precipitation  
Precipitation 0.00 in 0.06 in 1.07 in (1975)
Month to date precipitation 1.33 2.13  
Year to date precipitation 24.36 34.54  
Snow  
Snow 0.00 in 0.20 in 2.60 in (1886)
Month to date snowfall T 2.3  
Since 1 July snowfall T 2.7  
Since 1 September snowfall T 2.7  
Snow Depth 0.00 in    
Sea Level Pressure  
Sea Level Pressure 30.05 in    
Wind  
Wind Speed 7 mph (SSE)    
Max Wind Speed 12 mph    
Max Gust Speed 14 mph    
Visibility 10 miles    
Events      
T = Trace of Precipitation, MM = Missing Value Source: NWS Daily Summary

Daily Weather History Graph

Daily Weather History Graph

Search for Another Location

Airport or City:

Trip Planner

Search our weather history database for the weather conditions in past years. The results will help you decide how hot, cold, wet, or windy it might be!

Date:

Astronomy

Nov. 29, 2012 Rise Set
Actual Time 7:20 AM CST 4:45 PM CST
Civil Twilight 6:49 AM CST 5:16 PM CST
Nautical Twilight 6:14 AM CST 5:51 PM CST
Astronomical Twilight 5:41 AM CST 6:24 PM CST
Moon 5:49 PM CST (11/29) 8:07 AM CST (11/29)
Length of Visible Light 10h 27m
Length of Day
9h 25m
Full, 99% of the Moon is Illuminated
Nov 29
Full
Dec 6
Last Quarter
Dec 13
New
Dec 19
First Quarter
Dec 28
Full

Hourly Weather History & Observations

Time (CST) Temp. Windchill Dew Point Humidity Pressure Visibility Wind Dir Wind Speed Gust Speed Precip Events Conditions
12:54 AM 36.0 °F 29.6 °F 27.0 °F 70% 30.16 in 10.0 mi South 8.1 mph - N/A   Scattered Clouds
1:54 AM 36.0 °F 29.0 °F 28.0 °F 73% 30.15 in 10.0 mi South 9.2 mph - N/A   Partly Cloudy
2:54 AM 35.1 °F 27.4 °F 27.0 °F 72% 30.14 in 10.0 mi SSE 10.4 mph - N/A   Partly Cloudy
3:54 AM 33.1 °F 24.9 °F 27.0 °F 78% 30.12 in 10.0 mi SSE 10.4 mph - N/A   Clear
4:54 AM 32.0 °F 24.8 °F 26.1 °F 79% 30.11 in 10.0 mi SSE 8.1 mph - N/A   Clear
5:54 AM 32.0 °F 24.8 °F 27.0 °F 82% 30.10 in 10.0 mi SSE 8.1 mph - N/A   Partly Cloudy
6:54 AM 32.0 °F 26.4 °F 26.1 °F 79% 30.10 in 10.0 mi South 5.8 mph - N/A   Scattered Clouds
7:54 AM 32.0 °F 25.6 °F 27.0 °F 82% 30.09 in 9.0 mi South 6.9 mph - N/A   Scattered Clouds
8:54 AM 36.0 °F 31.1 °F 28.9 °F 76% 30.09 in 9.0 mi SSE 5.8 mph - N/A   Scattered Clouds
9:54 AM 42.8 °F 38.0 °F 32.0 °F 66% 30.07 in 10.0 mi South 8.1 mph - N/A   Scattered Clouds
10:54 AM 46.9 °F - 33.1 °F 59% 30.06 in 10.0 mi South 9.2 mph - N/A   Mostly Cloudy
11:54 AM 50.0 °F - 34.0 °F 54% 30.03 in 10.0 mi SSW 8.1 mph - N/A   Overcast
12:54 PM 53.1 °F - 35.1 °F 50% 30.00 in 10.0 mi Variable 4.6 mph - N/A   Overcast
1:54 PM 53.1 °F - 35.1 °F 50% 29.99 in 10.0 mi South 6.9 mph - N/A   Mostly Cloudy
2:54 PM 53.1 °F - 35.1 °F 50% 29.99 in 10.0 mi South 5.8 mph - N/A   Mostly Cloudy
3:54 PM 50.0 °F - 35.1 °F 57% 29.99 in 9.0 mi SSE 3.5 mph - N/A   Overcast
4:54 PM 48.9 °F - 34.0 °F 56% 30.00 in 10.0 mi SE 4.6 mph - N/A   Mostly Cloudy
5:54 PM 46.9 °F - 34.0 °F 61% 30.01 in 10.0 mi SE 5.8 mph - N/A   Scattered Clouds
6:54 PM 46.9 °F - 34.0 °F 61% 30.01 in 10.0 mi SE 6.9 mph - N/A   Mostly Cloudy
7:54 PM 41.0 °F 36.4 °F 33.1 °F 73% 30.01 in 10.0 mi SSE 6.9 mph - N/A   Partly Cloudy
8:54 PM 41.0 °F 38.0 °F 33.1 °F 73% 30.01 in 10.0 mi SE 4.6 mph - N/A   Clear
9:54 PM 37.9 °F 33.5 °F 32.0 °F 79% 30.01 in 10.0 mi SSE 5.8 mph - N/A   Clear
10:54 PM 39.9 °F 35.1 °F 33.1 °F 77% 29.98 in 9.0 mi SE 6.9 mph - N/A   Scattered Clouds
11:54 PM 37.0 °F 34.5 °F 32.0 °F 82% 30.01 in 8.0 mi NE 3.5 mph - N/A   Clear